| time (UTC) | temp F | wind direction | speed knots | gust knots | rain 1hr in | rain 24hr in | rain mn in | humidity % | barometer mb |
| 20260505230107 | 79 | 339 | 3.5 | 13.9 | 0.00 | 0.00 | 0.00 | 27 | 1001.8 |
| 20260505224558 | 79 | 309 | 6.1 | 13.0 | 0.00 | 0.00 | 0.00 | 27 | 1002.0 |
| 20260505223055 | 79 | 351 | 6.1 | 13.0 | 0.00 | 0.00 | 0.00 | 28 | 1002.1 |
| 20260505221557 | 79 | 321 | 6.1 | 9.6 | 0.00 | 0.00 | 0.00 | 27 | 1002.4 |
| 20260505220045 | 78 | 296 | 1.7 | 13.0 | 0.00 | 0.00 | 0.00 | 28 | 1002.4 |
| 20260505214543 | 78 | 333 | 6.1 | 15.6 | 0.00 | 0.00 | 0.00 | 26 | 1002.7 |
| 20260505213040 | 78 | 16 | 1.7 | 8.7 | 0.00 | 0.00 | 0.00 | 29 | 1002.8 |
| 20260505211511 | 77 | 11 | 2.6 | 12.2 | 0.00 | 0.00 | 0.00 | 30 | 1003.1 |
| 20260505210006 | 77 | 351 | 1.7 | 10.4 | 0.00 | 0.00 | 0.00 | 32 | 1003.2 |
| 20260505204503 | 77 | 355 | 7.8 | 13.9 | 0.00 | 0.00 | 0.00 | 31 | 1003.4 |
| 20260505203007 | 76 | 5 | 1.7 | 9.6 | 0.00 | 0.00 | 0.00 | 31 | 1003.5 |
| 20260505201502 | 76 | 304 | 6.1 | 12.2 | 0.00 | 0.00 | 0.00 | 30 | 1003.6 |
| 20260505200100 | 76 | 337 | 2.6 | 9.6 | 0.00 | 0.00 | 0.00 | 34 | 1003.6 |
| 20260505194617 | 76 | 10 | 2.6 | 8.7 | 0.00 | 0.00 | 0.00 | 32 | 1003.8 |
| 20260505193101 | 76 | 259 | 1.7 | 5.2 | 0.00 | 0.00 | 0.00 | 29 | 1003.9 |
| 20260505191607 | 76 | 297 | 0.9 | 5.2 | 0.00 | 0.00 | 0.00 | 30 | 1004.0 |
| 20260505190054 | 75 | 152 | 1.7 | 7.0 | 0.00 | 0.00 | 0.00 | 31 | 1004.1 |
| 20260505184549 | 75 | 178 | 2.6 | 5.2 | 0.00 | 0.00 | 0.00 | 29 | 1004.4 |
| 20260505183048 | 74 | 159 | 2.6 | 6.1 | 0.00 | 0.00 | 0.00 | 30 | 1004.5 |
| 20260505181547 | 74 | 116 | 2.6 | 7.0 | 0.00 | 0.00 | 0.00 | 31 | 1004.6 |
| 20260505180048 | 73 | 188 | 1.7 | 5.2 | 0.00 | 0.00 | 0.00 | 31 | 1004.8 |
| 20260505174541 | 73 | 129 | 1.7 | 7.0 | 0.00 | 0.00 | 0.00 | 31 | 1004.7 |
| 20260505173038 | 72 | 117 | 2.6 | 7.8 | 0.00 | 0.00 | 0.00 | 32 | 1004.6 |
| 20260505171538 | 72 | 162 | 3.5 | 7.0 | 0.00 | 0.00 | 0.00 | 31 | 1004.6 |
| 20260505170034 | 72 | 176 | 3.5 | 7.0 | 0.00 | 0.00 | 0.00 | 32 | 1004.5 |
| 20260505164532 | 71 | 200 | 1.7 | 4.3 | 0.00 | 0.00 | 0.00 | 33 | 1004.5 |
| 20260505163059 | 70 | 126 | 1.7 | 6.1 | 0.00 | 0.00 | 0.00 | 33 | 1004.5 |
| 20260505161602 | 70 | 154 | 2.6 | 7.8 | 0.00 | 0.00 | 0.00 | 33 | 1004.4 |
| 20260505153049 | 68 | 123 | 5.2 | 9.6 | 0.00 | 0.00 | 0.00 | 34 | 1004.2 |
| 20260505151545 | 67 | 178 | 3.5 | 6.1 | 0.00 | 0.00 | 0.00 | 43 | 1004.1 |
| 20260505124555 | 51 | 322 | 0.0 | 0.0 | 0.00 | 0.00 | 0.00 | 68 | 1002.0 |
| 20260505123016 | 52 | 322 | 0.0 | 0.0 | 0.00 | 0.00 | 0.00 | 67 | 1001.9 |
| 20260505121525 | 52 | 322 | 0.0 | 0.9 | 0.00 | 0.00 | 0.00 | 66 | 1001.4 |
| 20260505120007 | 53 | 322 | 0.9 | 2.6 | 0.00 | 0.00 | 0.00 | 64 | 1001.1 |
| 20260505114503 | 55 | 322 | 0.0 | 0.0 | 0.00 | 0.00 | 0.00 | 61 | 1001.1 |
| 20260505113104 | 56 | 322 | 0.0 | 0.9 | 0.00 | 0.00 | 0.00 | 58 | 1001.1 |
| 20260505111556 | 58 | 322 | 0.0 | 0.9 | 0.00 | 0.00 | 0.00 | 54 | 1000.7 |
| 20260505101516 | 58 | 327 | 2.6 | 7.0 | 0.00 | 0.00 | 0.00 | 53 | 999.9 |
| 20260505100021 | 58 | 355 | 1.7 | 5.2 | 0.00 | 0.00 | 0.00 | 53 | 999.9 |
| 20260505094515 | 59 | 295 | 3.5 | 9.6 | 0.00 | 0.00 | 0.00 | 51 | 999.8 |
| 20260505093042 | 58 | 350 | 4.3 | 10.4 | 0.00 | 0.00 | 0.00 | 52 | 999.8 |
| 20260505091550 | 58 | 308 | 5.2 | 7.8 | 0.00 | 0.00 | 0.00 | 53 | 999.6 |
| 20260505090044 | 59 | 296 | 5.2 | 9.6 | 0.00 | 0.00 | 0.00 | 51 | 999.6 |
| 20260505084532 | 59 | 300 | 4.3 | 10.4 | 0.00 | 0.00 | 0.00 | 50 | 999.6 |
| 20260505083042 | 59 | 271 | 4.3 | 9.6 | 0.00 | 0.00 | 0.00 | 50 | 999.5 |
| 20260505081530 | 60 | 296 | 2.6 | 5.2 | 0.00 | 0.00 | 0.00 | 49 | 999.5 |
| 20260505080022 | 61 | 306 | 2.6 | 7.0 | 0.00 | 0.00 | 0.00 | 45 | 999.5 |
| 20260505074517 | 62 | 305 | 2.6 | 7.8 | 0.00 | 0.00 | 0.00 | 44 | 999.5 |
| 20260505073014 | 63 | 302 | 4.3 | 9.6 | 0.00 | 0.00 | 0.00 | 42 | 999.5 |
| 20260505071510 | 65 | 283 | 1.7 | 7.0 | 0.00 | 0.00 | 0.00 | 40 | 999.4 |
| 20260505070038 | 65 | 301 | 4.3 | 11.3 | 0.00 | 0.00 | 0.00 | 37 | 999.2 |
| 20260505064536 | 65 | 351 | 4.3 | 9.6 | 0.00 | 0.00 | 0.00 | 39 | 999.0 |
| 20260505063043 | 64 | 337 | 5.2 | 9.6 | 0.00 | 0.00 | 0.00 | 40 | 998.8 |
| 20260505061534 | 65 | 311 | 4.3 | 7.8 | 0.00 | 0.00 | 0.00 | 41 | 998.8 |
| 20260505060026 | 65 | 309 | 4.3 | 9.6 | 0.00 | 0.00 | 0.00 | 40 | 998.8 |
| 20260505054535 | 64 | 315 | 2.6 | 5.2 | 0.00 | 0.00 | 0.00 | 43 | 998.7 |
| 20260505053022 | 64 | 313 | 1.7 | 7.0 | 0.00 | 0.00 | 0.00 | 45 | 998.7 |
| 20260505051622 | 65 | 309 | 1.7 | 5.2 | 0.00 | 0.00 | 0.00 | 44 | 998.6 |
| 20260505041600 | 69 | 329 | 2.6 | 5.2 | 0.00 | 0.00 | 0.00 | 37 | 998.3 |
| 20260505040049 | 70 | 355 | 1.7 | 5.2 | 0.00 | 0.00 | 0.00 | 37 | 998.2 |
| 20260505034518 | 70 | 331 | 1.7 | 7.0 | 0.00 | 0.00 | 0.00 | 37 | 997.8 |
| 20260505033018 | 72 | 312 | 3.5 | 8.7 | 0.00 | 0.00 | 0.00 | 35 | 997.7 |
| 20260505031526 | 73 | 355 | 3.5 | 7.8 | 0.00 | 0.00 | 0.00 | 35 | 997.5 |
| 20260505030017 | 74 | 312 | 3.5 | 7.8 | 0.00 | 0.00 | 0.00 | 32 | 997.2 |
| 20260505030015 | 74 | 311 | 3.5 | 7.8 | 0.00 | 0.00 | 0.00 | 32 | 997.2 |
| 20260505024513 | 75 | 309 | 2.6 | 7.8 | 0.00 | 0.00 | 0.00 | 29 | 997.1 |
| 20260505023016 | 76 | 335 | 4.3 | 10.4 | 0.00 | 0.00 | 0.00 | 28 | 996.9 |
| 20260505021512 | 77 | 340 | 3.5 | 9.6 | 0.00 | 0.00 | 0.00 | 28 | 996.9 |
| 20260505020011 | 77 | 360 | 6.1 | 9.6 | 0.00 | 0.00 | 0.00 | 26 | 997.0 |
| 20260505014515 | 78 | 323 | 2.6 | 9.6 | 0.00 | 0.00 | 0.00 | 26 | 997.0 |
| 20260505013010 | 79 | 348 | 4.3 | 10.4 | 0.00 | 0.00 | 0.00 | 25 | 997.1 |
| 20260505011539 | 80 | 349 | 3.5 | 13.0 | 0.00 | 0.00 | 0.00 | 24 | 997.2 |
| 20260505004533 | 81 | 5 | 5.2 | 12.2 | 0.00 | 0.00 | 0.00 | 23 | 997.4 |
| 20260505003036 | 81 | 329 | 7.0 | 13.9 | 0.00 | 0.00 | 0.00 | 23 | 997.5 |
| 20260505001529 | 81 | 347 | 4.3 | 13.0 | 0.00 | 0.00 | 0.00 | 23 | 997.7 |
| 20260505000031 | 82 | 303 | 5.2 | 11.3 | 0.00 | 0.00 | 0.00 | 24 | 997.7 |
| 20260504234556 | 81 | 333 | 4.3 | 13.0 | 0.00 | 0.00 | 0.00 | 21 | 997.8 |
| 20260504233102 | 82 | 355 | 5.2 | 13.0 | 0.00 | 0.00 | 0.00 | 21 | 998.0 |
| 20260504231552 | 82 | 348 | 5.2 | 13.0 | 0.00 | 0.00 | 0.00 | 21 | 998.2 |